SL-14 DEB, 45313

Orbit data source: Space-Track

SL-14 DEB, 45313 is space debris in LEO originally from a launch on Thu, 15 Aug 1991 UTC launched from the Plesetsk Missile And Space Complex (PKMTR). Debris objects in space refer to the collection of defunct objects orbiting the Earth. Examples of debris include non-operational satellites, rocket bodies, and fragments generated from explosions, collisions, or faulty payload assembly.

Loading next visibility...
Identifier
45313, 1991-056BB
Orbit
LEO
Country
Flag of CISCIS
Related business
Manufacturer
Unknown
Mission
Spacecraft
Bus & Motor
Unknown
Mass
Unknown
Launch date (UTC)
1991-08-15 (35 years ago)
Launch vehicle
Unknown
Launch site
Plesetsk Missile And Space Complex (PKMTR)
Object type
Payload
Rocket body
Debris
Shape & HBR
Unknown shape, 0.1 m
Radar Cross Section
Small (<0.1 m²)

Expand to show TLE details & history
Last TLE update: 2 weeks ago

TLE from 2 weeks ago
0 SL-14 DEB
1 45313U 91056BB  26151.24699881  .00001465  00000-0  24331-2 0  9990
2 45313  82.5750  87.8110 0089252 208.5942 151.0286 13.44461230306310
Epoch: 2026-05-31T05:55Z
TLE epoch observation values (Epoch: 2026-05-31T05:55:40.697Z)
Latitude
-0.00002°
Longitude
110.14001°
Altitude
1,154.037 km
Speed
7.248 km/s
True Right ascension
05h 51m 14s
True Declination
0° 00' 00"
Sunlit
Object was in daylight at epoch
Visualization orbit readout
Latitude
Unknown
Longitude
Unknown
Altitude
Unknown
Speed
Unknown
Apparent Right ascension
Unknown
Apparent Declination
Unknown
Sunlit
N/A
Visualization observer readout
Local Sidereal Time
21:04:38
Azimuth
Unknown
Elevation
Unknown
Doppler factor
Unknown
Orbital elements
Apogee altitude
1,156.566 km
Perigee altitude
1,023.258 km
Semi-major axis
7,468.049 km
Eccentricity
0.00893
Inclination
82.575°
RAAN
87.811°
Arg. of periapsis
208.5942°
True anomaly
151.5192°
Mean anomaly
151.0286°
Eccentric anomaly
151.27438°
Mean motion
3.36304 °/min
Orbital period
107.05 mins
BSTAR
0.0024331
Loading maneuver chart data...
Computing Atmospheric mass density...
Loading historical data...
Loading historical data...
Loading historical data...
Loading historical data...
Loading historical data...
Loading historical data...
Loading historical data...

Documentation

Showing up to 5 results
|